Home   Weather   42°12'N, 122°42'W   Past weeks
Flag for USA

Past Weather in 42°12'N, 122°42'W, USA — Yesterday and Last 2 Weeks

Now
59 °F

Partly sunny.


Feels Like: 58 °F
Forecast: 57 / 47 °F
Wind: 7 mph from North

Location: Rogue Valley International Airport

Current Time: Oct 18, 2019 at 4:43:01 pm

Latest Report: Oct 18, 2019 at 3:53 pm


Visibility: 9 mi

Pressure: 30.04 "Hg

Humidity: 51%

Dew Point: 41 °F

Location of 42°12'N, 122°42'WLocation

Past Weather in 42°12'N, 122°42'W — Graph

°F

42°12'N, 122°42'W Temperature Yesterday

Maximum temperature yesterday: 57 °F (at 1:53 pm)
Minimum temperature yesterday: 49 °F (at 3:53 am)
Average temperature yesterday: 52 °F

High & Low Weather Summary for the Past Weeks

 TemperatureHumidityPressure
High77 °F (Oct 6, 4:53 pm)97% (Oct 16, 8:53 pm)30.37 "Hg (Oct 16, 8:53 pm)
Low33 °F (Oct 10, 6:53 am)8% (Oct 11, 4:53 pm)29.82 "Hg (Oct 16, 2:53 pm)
Average52 °F61%30.06 "Hg
* Reported Oct 3 2:53 pm — Oct 18 2:53 pm, 42°12'N, 122°42'W. Weather by CustomWeather, © 2019

Note: Actual official high and low records may vary slightly from our data, if they occured in-between our weather recording intervals... More about our weather records

Advertising

42°12'N, 122°42'W Weather History for the Previous 24 Hours

Scroll right to see more
 ConditionsComfort  
Time TempWeatherWind HumidityBarometerVisibility
2:53 pm
Fri, Oct 18
59 °FPartly sunny.3 mph49%30.04 "Hg10 mi
1:53 pm59 °FBroken clouds.6 mph51%30.06 "Hg10 mi
12:53 pm58 °FBroken clouds.6 mph58%30.07 "Hg10 mi
11:53 am54 °FBroken clouds.No wind69%30.08 "Hg10 mi
10:53 am53 °FBroken clouds.No wind77%30.09 "Hg10 mi
9:53 am52 °FBroken clouds.No wind86%30.08 "Hg10 mi
8:53 am50 °FBroken clouds.No wind89%30.06 "Hg10 mi
7:53 am49 °FMore clouds than sun.No wind93%30.05 "Hg10 mi
7:44 am49 °FMore clouds than sun.No wind93%30.05 "Hg10 mi
6:53 am49 °FMostly cloudy.No wind93%30.04 "Hg10 mi
5:53 am49 °FOvercast.3 mph93%30.03 "Hg10 mi
5:28 am49 °FMostly cloudy.No wind97%30.02 "Hg9 mi
5:08 am49 °FMostly cloudy.No wind93%30.02 "Hg10 mi
4:53 am49 °FMostly cloudy.No wind97%30.02 "Hg9 mi
4:31 am49 °FFog.No wind97%30.02 "Hg6 mi
4:19 am49 °FLight rain. Fog.3 mph97%30.02 "Hg3 mi
3:53 am49 °FLight rain. Fog.3 mph97%30.02 "Hg3 mi
3:34 am49 °FLight rain. Fog.3 mph97%30.02 "Hg2 mi
2:53 am49 °FLight rain. Fog.No wind97%30.01 "Hg4 mi
2:29 am49 °FLight rain. Fog.No wind97%30.02 "Hg3 mi
2:16 am49 °FLight rain. Fog.No wind93%30.02 "Hg4 mi
1:22 am49 °FLight rain. Fog.6 mph97%30.02 "Hg3 mi
1:00 am49 °FLight rain. Fog.No wind97%30.02 "Hg2 mi
11:53 pm
Thu, Oct 17
50 °FLight rain. Mostly cloudy.3 mph93%30.01 "Hg7 mi
10:53 pm49 °FLight rain. Fog.5 mph93%30.01 "Hg5 mi
9:53 pm51 °FLight rain. Overcast.5 mph80%29.97 "Hg7 mi
8:53 pm51 °FMostly cloudy.No wind77%29.95 "Hg10 mi
7:53 pm51 °FPassing clouds.3 mph80%29.96 "Hg10 mi
6:53 pm55 °FPassing clouds.No wind67%29.95 "Hg10 mi
5:53 pm56 °FPartly sunny.No wind70%29.96 "Hg10 mi
4:53 pm57 °FPartly sunny.No wind64%29.96 "Hg10 mi
Weather by CustomWeather, © 2019

See weather overview